KE5OYL Weather Reports


Display with metric or nautical units.
time (UTC)temp
F
wind
direction
speed
MPH
gust
MPH
rain 1hr
in
rain 24hr
in
rain mn
in
humidity
%
barometer
mb
20260902203216 97 109 6.0 10.0 0.00 0.00 0.00 42 1012.7
20260902202710 98 352 5.0 7.0 0.00 0.00 0.00 42 1012.9
20260902202207 96 56 3.0 7.0 0.00 0.00 0.00 43 1013.0
20260902201703 97 38 10.0 14.0 0.00 0.00 0.00 41 1013.0
20260902201202 96 340 3.0 8.0 0.00 0.00 0.00 42 1012.9
20260902200657 97 44 5.0 10.0 0.00 0.00 0.00 41 1013.2
20260902200153 97 15 3.0 5.0 0.00 0.00 0.00 41 1013.4
20260902195648 96 29 4.0 11.0 0.00 0.00 0.00 42 1013.4
20260902195143 97 30 5.0 11.0 0.00 0.00 0.00 43 1013.6
20260902194641 96 4 1.0 11.0 0.00 0.00 0.00 44 1013.7
20260902194137 95 39 5.0 8.0 0.00 0.00 0.00 43 1013.5
20260902193633 95 29 5.0 9.0 0.00 0.00 0.00 44 1013.6
20260902193133 96 3 6.0 13.0 0.00 0.00 0.00 43 1013.7
20260902192631 95 45 4.0 7.0 0.00 0.00 0.00 44 1013.7
20260902192130 95 358 2.0 14.0 0.00 0.00 0.00 46 1014.1
20260902191625 96 11 6.0 9.0 0.00 0.00 0.00 45 1013.9
20260902191120 95 52 5.0 8.0 0.00 0.00 0.00 45 1014.2
20260902190615 94 19 6.0 8.0 0.00 0.00 0.00 46 1014.3
20260902190110 94 5 8.0 14.0 0.00 0.00 0.00 47 1014.5
20260902185606 95 31 6.0 9.0 0.00 0.00 0.00 45 1014.3
20260902185102 95 8 2.0 5.0 0.00 0.00 0.00 47 1014.7
20260902184557 93 349 1.0 6.0 0.00 0.00 0.00 48 1014.5
20260902184052 93 30 9.0 11.0 0.00 0.00 0.00 48 1014.4
20260902183548 93 33 5.0 9.0 0.00 0.00 0.00 48 1014.8
20260902183045 95 51 6.0 9.0 0.00 0.00 0.00 47 1014.9
20260902182540 94 20 7.0 9.0 0.00 0.00 0.00 48 1014.8
20260902182037 94 124 1.0 8.0 0.00 0.00 0.00 49 1014.9
20260902181532 93 27 3.0 11.0 0.00 0.00 0.00 49 1015.1
20260902181027 92 45 4.0 8.0 0.00 0.00 0.00 51 1015.0
20260902180526 93 28 1.0 7.0 0.00 0.00 0.00 52 1015.1
20260902180022 94 20 4.0 8.0 0.00 0.00 0.00 50 1015.5
20260902175522 93 19 2.0 6.0 0.00 0.00 0.00 52 1015.5
20260902175018 92 21 1.0 10.0 0.00 0.00 0.00 54 1015.9
20260902174515 92 15 4.0 10.0 0.00 0.00 0.00 53 1015.6
20260902174010 92 36 2.0 3.0 0.00 0.00 0.00 53 1015.9
20260902173510 91 16 3.0 5.0 0.00 0.00 0.00 54 1016.0
20260902173005 92 86 5.0 7.0 0.00 0.00 0.00 52 1015.9
20260902172504 92 63 5.0 7.0 0.00 0.00 0.00 53 1016.0
20260902171959 93 84 4.0 7.0 0.00 0.00 0.00 52 1016.1
20260902171455 93 49 5.0 8.0 0.00 0.00 0.00 52 1015.9
20260902170950 91 34 1.0 3.0 0.00 0.00 0.00 52 1016.1
20260902170450 91 69 8.0 10.0 0.00 0.00 0.00 54 1016.5
20260902165946 91 4 3.0 8.0 0.00 0.00 0.00 54 1016.6
20260902165445 90 28 4.0 7.0 0.00 0.00 0.00 55 1016.6
20260902164941 92 44 3.0 6.0 0.00 0.00 0.00 53 1016.4
20260902164436 91 66 1.0 6.0 0.00 0.00 0.00 55 1016.6
20260902163935 92 30 2.0 8.0 0.00 0.00 0.00 55 1016.7
20260902163430 91 33 2.0 5.0 0.00 0.00 0.00 55 1016.7
20260902162928 90 294 2.0 2.0 0.00 0.00 0.00 58 1016.6
20260902162424 90 36 2.0 5.0 0.00 0.00 0.00 58 1016.7
20260902161923 90 15 1.0 2.0 0.00 0.00 0.00 57 1016.8
20260902161418 90 60 4.0 6.0 0.00 0.00 0.00 57 1016.7
20260902160914 89 26 4.0 6.0 0.00 0.00 0.00 59 1016.5
20260902160409 91 63 5.0 9.0 0.00 0.00 0.00 60 1016.8
20260902155907 89 346 1.0 2.0 0.00 0.00 0.00 60 1016.8
20260902155402 87 35 1.0 3.0 0.00 0.00 0.00 61 1017.0
20260902154856 88 28 1.0 9.0 0.00 0.00 0.00 62 1016.8
20260902154352 88 28 2.0 3.0 0.00 0.00 0.00 62 1017.0
20260902153851 88 41 1.0 6.0 0.00 0.00 0.00 62 1016.9
20260902153350 88 12 3.0 7.0 0.00 0.00 0.00 63 1016.9
20260902152846 87 359 0.0 1.0 0.00 0.00 0.00 63 1016.8
20260902152342 87 158 4.0 6.0 0.00 0.00 0.00 64 1017.1
20260902151837 86 38 0.0 3.0 0.00 0.00 0.00 66 1016.8
20260902151332 88 39 2.0 6.0 0.00 0.00 0.00 62 1016.8
20260902150827 87 32 1.0 3.0 0.00 0.00 0.00 65 1016.9
20260902150324 87 358 1.0 2.0 0.00 0.00 0.00 64 1016.8
20260902145823 86 110 4.0 5.0 0.00 0.00 0.00 66 1016.8
20260902145318 86 312 2.0 5.0 0.00 0.00 0.00 67 1017.0
20260902144814 86 342 1.0 5.0 0.00 0.00 0.00 68 1016.8
20260902144310 85 16 1.0 1.0 0.00 0.00 0.00 67 1016.7
20260902143804 84 100 3.0 5.0 0.00 0.00 0.00 69 1016.5
20260902143259 85 135 5.0 6.0 0.00 0.00 0.00 68 1016.7
20260902142756 85 165 5.0 6.0 0.00 0.00 0.00 69 1016.6
20260902142251 86 20 1.0 2.0 0.00 0.00 0.00 67 1016.7
20260902141750 84 53 3.0 3.0 0.00 0.00 0.00 69 1016.5
20260902141246 85 93 5.0 6.0 0.00 0.00 0.00 67 1016.7
20260902140741 84 137 4.0 7.0 0.00 0.00 0.00 68 1016.8
20260902140236 85 3 1.0 5.0 0.00 0.00 0.00 67 1016.7
20260902135735 84 89 3.0 6.0 0.00 0.00 0.00 67 1016.9
20260902135231 84 149 6.0 7.0 0.00 0.00 0.00 67 1016.6
20260902134730 84 51 3.0 3.0 0.00 0.00 0.00 68 1016.6
20260902134226 84 61 3.0 5.0 0.00 0.00 0.00 68 1016.6
20260902133721 83 25 0.0 3.0 0.00 0.00 0.00 69 1016.6
20260902133220 83 95 3.0 7.0 0.00 0.00 0.00 69 1016.7
20260902132715 82 33 1.0 6.0 0.00 0.00 0.00 70 1016.7
20260902132211 82 87 5.0 6.0 0.00 0.00 0.00 69 1016.5
20260902131706 82 129 3.0 6.0 0.00 0.00 0.00 70 1016.5
20260902131203 82 145 3.0 9.0 0.00 0.00 0.00 70 1016.6
20260902130657 82 107 6.0 9.0 0.00 0.00 0.00 71 1016.6
20260902130153 81 34 1.0 6.0 0.00 0.00 0.00 72 1016.7
20260902125648 81 90 5.0 9.0 0.00 0.00 0.00 72 1016.5
20260902125144 81 61 7.0 10.0 0.00 0.00 0.00 72 1016.5
20260902124641 81 74 5.0 9.0 0.00 0.00 0.00 72 1016.2
20260902124140 81 53 3.0 7.0 0.00 0.00 0.00 72 1016.2
20260902123636 81 88 3.0 3.0 0.00 0.00 0.00 71 1016.1
20260902123137 81 59 3.0 5.0 0.00 0.00 0.00 71 1016.1
20260902122631 81 68 3.0 5.0 0.00 0.00 0.00 72 1016.1
20260902122126 81 62 2.0 3.0 0.00 0.00 0.00 72 1016.0
20260902121621 80 55 3.0 3.0 0.00 0.00 0.00 73 1015.9
20260902121115 80 25 0.0 5.0 0.00 0.00 0.00 73 1016.1
20260902120612 80 91 4.0 5.0 0.00 0.00 0.00 73 1016.1
20260902120108 80 70 3.0 6.0 0.00 0.00 0.00 73 1016.1
20260902115603 80 114 3.0 5.0 0.00 0.00 0.00 73 1015.9
20260902115059 80 88 4.0 5.0 0.00 0.00 0.00 73 1016.1
20260902114555 81 31 2.0 5.0 0.00 0.00 0.00 73 1015.9
20260902114054 81 75 3.0 3.0 0.00 0.00 0.00 73 1016.3
20260902113550 81 75 5.0 6.0 0.00 0.00 0.00 72 1016.2
20260902113045 81 60 2.0 6.0 0.00 0.00 0.00 72 1016.3
20260902112540 81 51 1.0 3.0 0.00 0.00 0.00 71 1016.1
20260902112037 81 70 2.0 3.0 0.00 0.00 0.00 71 1016.0
20260902111533 81 63 3.0 5.0 0.00 0.00 0.00 71 1016.1
20260902111028 81 50 2.0 5.0 0.00 0.00 0.00 70 1016.2
20260902110525 81 33 0.0 2.0 0.00 0.00 0.00 70 1016.4
20260902110020 82 33 1.0 2.0 0.00 0.00 0.00 70 1016.5
20260902105520 82 24 1.0 2.0 0.00 0.00 0.00 69 1016.0
20260902105014 82 35 2.0 2.0 0.00 0.00 0.00 69 1015.9
20260902104509 82 36 1.0 3.0 0.00 0.00 0.00 69 1016.1
20260902104004 82 25 1.0 2.0 0.00 0.00 0.00 69 1016.2
20260902103459 82 30 1.0 2.0 0.00 0.00 0.00 69 1016.1
20260902102954 82 25 1.0 3.0 0.00 0.00 0.00 69 1015.9
20260902102451 82 354 0.0 5.0 0.00 0.00 0.00 69 1016.1
20260902101947 82 87 3.0 6.0 0.00 0.00 0.00 68 1016.1
20260902101442 82 326 2.0 2.0 0.00 0.00 0.00 68 1016.0
20260902100941 82 122 3.0 5.0 0.00 0.00 0.00 68 1015.9
20260902100436 82 22 1.0 3.0 0.00 0.00 0.00 68 1015.9
20260902095936 83 100 3.0 3.0 0.00 0.00 0.00 68 1016.1
20260902095431 83 100 2.0 3.0 0.00 0.00 0.00 67 1016.1
20260902094930 83 21 1.0 2.0 0.00 0.00 0.00 68 1015.9
20260902094426 83 300 1.0 2.0 0.00 0.00 0.00 68 1016.0
20260902093921 83 178 2.0 3.0 0.00 0.00 0.00 67 1016.1
20260902093416 83 315 1.0 2.0 0.00 0.00 0.00 67 1015.8
20260902092914 83 232 2.0 2.0 0.00 0.00 0.00 67 1016.1
20260902092410 83 45 1.0 3.0 0.00 0.00 0.00 67 1016.0
20260902091905 83 84 2.0 3.0 0.00 0.00 0.00 67 1016.0
20260902091400 83 143 3.0 3.0 0.00 0.00 0.00 67 1016.0
20260902090857 83 7 0.0 1.0 0.00 0.00 0.00 67 1015.8
20260902090357 83 49 1.0 2.0 0.00 0.00 0.00 67 1016.0
20260902085855 83 65 2.0 2.0 0.00 0.00 0.00 68 1015.7
20260902085351 83 159 2.0 2.0 0.00 0.00 0.00 67 1015.9
20260902084846 83 242 3.0 3.0 0.00 0.00 0.00 67 1015.7
20260902084343 83 127 3.0 3.0 0.00 0.00 0.00 67 1015.7
20260902083838 83 325 1.0 2.0 0.00 0.00 0.00 67 1015.8
20260902083337 84 16 1.0 1.0 0.00 0.00 0.00 66 1015.8
20260902082833 84 40 2.0 3.0 0.00 0.00 0.00 66 1015.8
20260902082329 84 157 5.0 6.0 0.00 0.00 0.00 67 1015.8
20260902081825 83 137 3.0 7.0 0.00 0.00 0.00 67 1015.7
20260902081320 83 196 4.0 6.0 0.00 0.00 0.00 67 1015.8
20260902080815 84 232 2.0 5.0 0.00 0.00 0.00 67 1015.7
20260902080312 84 340 1.0 3.0 0.00 0.00 0.00 67 1015.8
20260902075811 84 7 0.0 2.0 0.00 0.00 0.00 67 1015.7
20260902075307 84 222 2.0 3.0 0.00 0.00 0.00 67 1015.9
20260902074802 84 168 1.0 3.0 0.00 0.00 0.00 67 1016.0
20260902074258 84 29 2.0 5.0 0.00 0.00 0.00 67 1015.8
20260902073752 84 33 1.0 3.0 0.00 0.00 0.00 68 1015.8
20260902073249 84 233 2.0 5.0 0.00 0.00 0.00 68 1016.0
20260902072744 84 172 2.0 7.0 0.00 0.00 0.00 69 1015.9
20260902072240 84 132 1.0 6.0 0.00 0.00 0.00 68 1015.5
20260902071736 84 102 3.0 6.0 0.00 0.00 0.00 68 1015.8
20260902071231 84 324 2.0 5.0 0.00 0.00 0.00 68 1015.8
20260902070728 84 50 3.0 3.0 0.00 0.00 0.00 68 1015.9
20260902070227 84 124 5.0 8.0 0.00 0.00 0.00 68 1016.0
20260902065726 84 115 5.0 7.0 0.00 0.00 0.00 68 1015.8
20260902065221 84 73 3.0 7.0 0.00 0.00 0.00 68 1015.8
20260902064717 84 142 3.0 8.0 0.00 0.00 0.00 68 1015.8
20260902064212 85 82 4.0 7.0 0.00 0.00 0.00 67 1015.9
20260902063708 85 32 2.0 7.0 0.00 0.00 0.00 67 1015.9
20260902063202 85 87 2.0 7.0 0.00 0.00 0.00 67 1015.7
20260902062702 85 142 3.0 8.0 0.00 0.00 0.00 67 1015.9
20260902062157 85 179 5.0 6.0 0.00 0.00 0.00 67 1015.7
20260902061655 85 152 4.0 6.0 0.00 0.00 0.00 66 1015.9
20260902061151 85 64 3.0 5.0 0.00 0.00 0.00 66 1016.0
20260902060648 85 58 2.0 6.0 0.00 0.00 0.00 66 1015.9
20260902060144 86 40 1.0 2.0 0.00 0.00 0.00 65 1015.8
20260902055639 86 44 3.0 3.0 0.00 0.00 0.00 65 1015.7
20260902055135 86 28 2.0 6.0 0.00 0.00 0.00 64 1015.7
20260902054630 86 313 5.0 7.0 0.00 0.00 0.00 64 1015.7
20260902054126 86 52 3.0 7.0 0.00 0.00 0.00 64 1015.6
20260902053621 87 122 5.0 6.0 0.00 0.00 0.00 63 1015.9
20260902053121 87 73 2.0 8.0 0.00 0.00 0.00 63 1015.7
20260902052615 87 39 1.0 5.0 0.00 0.00 0.00 62 1015.8
20260902052111 87 61 3.0 5.0 0.00 0.00 0.00 63 1015.9
20260902051610 87 41 2.0 3.0 0.00 0.00 0.00 62 1015.9
20260902051109 87 124 3.0 5.0 0.00 0.00 0.00 62 1015.9
20260902050604 87 160 3.0 8.0 0.00 0.00 0.00 62 1015.8
20260902050059 87 34 1.0 6.0 0.00 0.00 0.00 61 1015.9
20260902045554 87 178 7.0 9.0 0.00 0.00 0.00 61 1015.8
20260902045050 88 169 5.0 7.0 0.00 0.00 0.00 61 1015.6
20260902044545 87 222 6.0 8.0 0.00 0.00 0.00 60 1015.6
20260902044040 88 51 1.0 5.0 0.00 0.00 0.00 60 1015.6
20260902043536 88 155 8.0 10.0 0.00 0.00 0.00 60 1015.5
20260902043031 88 141 8.0 10.0 0.00 0.00 0.00 60 1015.7
20260902042530 88 116 3.0 7.0 0.00 0.00 0.00 59 1015.6
20260902042025 88 185 3.0 14.0 0.00 0.00 0.00 59 1015.6
20260902041520 88 151 11.0 14.0 0.00 0.00 0.00 59 1015.6
20260902041015 89 154 5.0 8.0 0.00 0.00 0.00 58 1015.7
20260902040515 89 195 7.0 9.0 0.00 0.00 0.00 57 1015.9
20260902040015 89 201 8.0 10.0 0.00 0.00 0.00 57 1015.7
20260902035508 89 122 5.0 9.0 0.00 0.00 0.00 56 1015.5
20260902035003 90 80 9.0 13.0 0.00 0.00 0.00 55 1015.6
20260902034457 91 81 3.0 7.0 0.00 0.00 0.00 53 1015.6
20260902033957 92 112 12.0 18.0 0.00 0.00 0.00 51 1015.2
20260902033456 92 88 3.0 5.0 0.00 0.00 0.00 50 1015.3
20260902032955 92 66 3.0 3.0 0.00 0.00 0.00 50 1015.0
20260902032449 92 2 1.0 2.0 0.00 0.00 0.00 51 1014.8
20260902031939 92 18 0.0 2.0 0.00 0.00 0.00 50 1014.8
20260902031434 92 10 1.0 3.0 0.00 0.00 0.00 50 1015.0
20260902030930 92 96 2.0 3.0 0.00 0.00 0.00 50 1014.6
20260902030424 92 29 2.0 2.0 0.00 0.00 0.00 50 1014.8
20260902025923 92 58 2.0 3.0 0.00 0.00 0.00 51 1014.8
20260902025419 92 37 2.0 2.0 0.00 0.00 0.00 51 1014.7
20260902024914 92 34 1.0 3.0 0.00 0.00 0.00 51 1014.6
20260902024409 92 193 2.0 3.0 0.00 0.00 0.00 51 1014.6
20260902023904 92 51 3.0 3.0 0.00 0.00 0.00 51 1014.4
20260902023400 92 81 4.0 6.0 0.00 0.00 0.00 50 1014.6
20260902022859 93 101 3.0 6.0 0.00 0.00 0.00 50 1014.4
20260902022354 93 58 3.0 7.0 0.00 0.00 0.00 49 1014.3
20260902021850 93 59 3.0 6.0 0.00 0.00 0.00 49 1014.2
20260902021350 94 27 1.0 5.0 0.00 0.00 0.00 48 1014.2
20260902020846 94 75 2.0 5.0 0.00 0.00 0.00 48 1014.1
20260902020342 94 156 3.0 6.0 0.00 0.00 0.00 47 1014.0
20260902015837 94 25 1.0 3.0 0.00 0.00 0.00 47 1014.1
20260902015333 94 137 3.0 5.0 0.00 0.00 0.00 47 1013.9
20260902014828 95 126 4.0 6.0 0.00 0.00 0.00 46 1013.7
20260902014325 95 66 3.0 3.0 0.00 0.00 0.00 45 1013.7
20260902013823 95 103 3.0 5.0 0.00 0.00 0.00 46 1013.9
20260902013319 95 75 3.0 5.0 0.00 0.00 0.00 45 1013.4
20260902012814 95 46 1.0 5.0 0.00 0.00 0.00 44 1013.6
20260902012310 96 216 1.0 2.0 0.00 0.00 0.00 44 1013.4
20260902011806 95 92 3.0 5.0 0.00 0.00 0.00 44 1013.5
20260902011300 96 72 2.0 5.0 0.00 0.00 0.00 44 1013.5
20260902010759 96 73 3.0 5.0 0.00 0.00 0.00 44 1013.2
20260902010255 95 137 3.0 5.0 0.00 0.00 0.00 44 1013.3
20260902005753 96 74 3.0 6.0 0.00 0.00 0.00 44 1013.4
20260902005248 95 42 3.0 3.0 0.00 0.00 0.00 44 1013.5
20260902004743 96 130 3.0 3.0 0.00 0.00 0.00 44 1013.5
20260902004238 96 131 4.0 5.0 0.00 0.00 0.00 44 1013.4
20260902003733 96 105 5.0 6.0 0.00 0.00 0.00 44 1013.5
20260902003229 96 82 4.0 6.0 0.00 0.00 0.00 43 1013.2
20260902002725 97 5 1.0 3.0 0.00 0.00 0.00 43 1013.4
20260902002224 97 160 3.0 5.0 0.00 0.00 0.00 43 1013.5
20260902001720 97 99 6.0 6.0 0.00 0.00 0.00 43 1013.6
20260902001219 97 128 3.0 8.0 0.00 0.00 0.00 43 1013.5
20260902000714 96 54 2.0 7.0 0.00 0.00 0.00 43 1013.6
20260902000211 97 146 4.0 8.0 0.00 0.00 0.00 43 1013.5
20260901235709 97 113 3.0 7.0 0.00 0.00 0.00 42 1013.5
20260901235204 96 69 2.0 8.0 0.00 0.00 0.00 43 1013.7
20260901234704 96 69 5.0 9.0 0.00 0.00 0.00 43 1013.6
20260901234159 97 40 6.0 9.0 0.00 0.00 0.00 43 1013.9
20260901233658 97 100 5.0 7.0 0.00 0.00 0.00 42 1013.8
20260901233155 97 93 6.0 9.0 0.00 0.00 0.00 42 1013.6
20260901232649 97 97 4.0 9.0 0.00 0.00 0.00 42 1013.7
20260901232145 98 41 4.0 7.0 0.00 0.00 0.00 41 1013.9
20260901231642 98 67 5.0 9.0 0.00 0.00 0.00 41 1013.7
20260901231137 98 56 5.0 9.0 0.00 0.00 0.00 42 1013.7
20260901230633 98 70 5.0 7.0 0.00 0.00 0.00 41 1013.6
20260901230132 99 109 8.0 10.0 0.00 0.00 0.00 41 1013.7
20260901225628 98 46 10.0 13.0 0.00 0.00 0.00 41 1014.0
20260901225128 99 35 1.0 3.0 0.00 0.00 0.00 41 1013.8
20260901224624 100 57 6.0 8.0 0.00 0.00 0.00 40 1014.1
20260901224120 99 74 4.0 7.0 0.00 0.00 0.00 40 1013.9
20260901223615 98 38 5.0 7.0 0.00 0.00 0.00 41 1013.8
20260901223110 98 118 8.0 11.0 0.00 0.00 0.00 41 1013.6
20260901222607 99 106 8.0 9.0 0.00 0.00 0.00 41 1013.7
20260901222102 98 78 5.0 10.0 0.00 0.00 0.00 41 1014.0
20260901221558 98 29 4.0 6.0 0.00 0.00 0.00 41 1013.7
20260901221053 98 49 3.0 3.0 0.00 0.00 0.00 41 1013.9
20260901220552 98 105 3.0 5.0 0.00 0.00 0.00 41 1013.8
20260901220052 97 76 4.0 7.0 0.00 0.00 0.00 42 1014.1
20260901215550 97 74 5.0 9.0 0.00 0.00 0.00 43 1014.0
20260901215044 97 83 1.0 6.0 0.00 0.00 0.00 42 1014.1
20260901214543 98 49 5.0 9.0 0.00 0.00 0.00 42 1014.4
20260901214038 97 28 2.0 7.0 0.00 0.00 0.00 42 1014.1
20260901213537 98 40 4.0 7.0 0.00 0.00 0.00 41 1014.1
20260901213032 97 103 6.0 10.0 0.00 0.00 0.00 42 1014.2
20260901212531 98 36 3.0 6.0 0.00 0.00 0.00 42 1014.1
20260901212029 98 330 3.0 10.0 0.00 0.00 0.00 41 1014.4
20260901211523 98 16 2.0 9.0 0.00 0.00 0.00 41 1014.2
20260901211020 98 55 4.0 11.0 0.00 0.00 0.00 41 1014.3
20260901210515 98 19 2.0 5.0 0.00 0.00 0.00 41 1014.4
20260901210011 100 59 3.0 5.0 0.00 0.00 0.00 39 1014.5
20260901205506 99 21 1.0 7.0 0.00 0.00 0.00 39 1014.4
20260901205000 99 132 7.0 10.0 0.00 0.00 0.00 40 1014.5
20260901204457 98 15 1.0 7.0 0.00 0.00 0.00 41 1014.4
20260901203956 99 21 2.0 9.0 0.00 0.00 0.00 41 1014.4
20260901203451 101 31 2.0 8.0 0.00 0.00 0.00 40 1014.5